Zurück zum Katalog

COSMOS 1275 DEB

AktivPO
NORAD 12964·DEBRIS·🇷🇺 Russia

Gestartet Jun 4, 1981 von Plesetsk Cosmodrome

Loading…

Nächste Überflüge (nächste 24 Stunden)

TLE

AktuellSource: Space-Track

Epoche: Sep 14, 2026, 09:01 UTC

1 12964U 81053EK  26257.37602631  .00000022  00000-0  66533-5 0  9991
2 12964  82.9442  49.3594 0037546 243.2578 142.9344 13.80318407261127

Verfolge COSMOS 1275 DEB in Echtzeit mit AllMySat

Download on the App Store